TimePST,TemperatureF,Dew PointF,Humidity,Sea Level PressureIn,VisibilityMPH,Wind Direction,Wind SpeedMPH,Gust SpeedMPH,PrecipitationIn,Events,Conditions,WindDirDegrees,DateUTC
12:53 AM,39.0,37.0,93,30.20,6.0,North,3.5,-,N/A,,Clear,360,2013-01-07 08:53:00
1:53 AM,39.0,37.0,93,30.21,8.0,Calm,Calm,-,N/A,,Clear,0,2013-01-07 09:53:00
2:53 AM,37.9,36.0,93,30.21,8.0,ESE,4.6,-,N/A,,Clear,120,2013-01-07 10:53:00
3:53 AM,37.0,36.0,96,30.23,6.0,Calm,Calm,-,N/A,,Clear,0,2013-01-07 11:53:00
4:53 AM,37.0,36.0,96,30.22,6.0,NE,3.5,-,N/A,,Clear,40,2013-01-07 12:53:00
5:53 AM,36.0,35.1,97,30.24,6.0,SE,4.6,-,N/A,,Clear,140,2013-01-07 13:53:00
6:53 AM,37.0,35.1,93,30.25,5.0,East,6.9,-,N/A,,Clear,80,2013-01-07 14:53:00
7:53 AM,39.0,37.0,93,30.26,7.0,SE,5.8,-,N/A,,Clear,130,2013-01-07 15:53:00
8:53 AM,41.0,39.0,93,30.28,7.0,Calm,Calm,-,N/A,,Clear,0,2013-01-07 16:53:00
9:53 AM,43.0,39.9,89,30.28,10.0,ESE,9.2,-,N/A,,Clear,110,2013-01-07 17:53:00
10:53 AM,46.9,42.1,83,30.29,10.0,Calm,Calm,-,N/A,,Clear,0,2013-01-07 18:53:00
11:53 AM,50.0,43.0,77,30.26,10.0,SE,3.5,-,N/A,,Clear,130,2013-01-07 19:53:00
12:53 PM,54.0,44.1,69,30.21,10.0,Calm,Calm,-,N/A,,Clear,0,2013-01-07 20:53:00
1:53 PM,55.9,42.1,60,30.21,10.0,WNW,6.9,-,N/A,,Clear,290,2013-01-07 21:53:00
4:53 PM,55.0,44.1,67,30.18,10.0,West,5.8,-,N/A,,Clear,270,2013-01-08 00:53:00
5:53 PM,52.0,45.0,77,30.19,10.0,NW,5.8,-,N/A,,Clear,320,2013-01-08 01:53:00
6:53 PM,50.0,45.0,83,30.19,7.0,NNW,3.5,-,N/A,,Clear,330,2013-01-08 02:53:00
7:53 PM,48.9,45.0,86,30.19,7.0,Calm,Calm,-,N/A,,Clear,0,2013-01-08 03:53:00
8:53 PM,48.0,44.1,86,30.19,7.0,North,4.6,-,N/A,,Clear,350,2013-01-08 04:53:00
9:53 PM,46.9,44.1,90,30.20,6.0,Calm,Calm,-,N/A,,Clear,0,2013-01-08 05:53:00
10:53 PM,46.0,43.0,89,30.20,5.0,Calm,Calm,-,N/A,,Clear,0,2013-01-08 06:53:00
11:53 PM,44.1,42.1,93,30.20,6.0,Calm,Calm,-,N/A,,Clear,0,2013-01-08 07:53:00